Weather History for KSLE - December, 2012

Change the Weather History Date:

Wednesday, December 5, 2012

  Actual Average Record
Temperature  
Mean Temperature 44 °F 41 °F  
Max Temperature 52 °F 47 °F 59 °F (1944)
Min Temperature 36 °F 35 °F 17 °F (2013)
Degree Days  
Heating Degree Days 21 24  
Month to date heating degree days 80 117  
Since 1 July heating degree days 994 1234  
Cooling Degree Days 0 0  
Month to date cooling degree days 0 0  
Year to date cooling degree days 317 290  
Moisture  
Dew Point 41 °F    
Average Humidity 77    
Maximum Humidity 100    
Minimum Humidity 54    
Precipitation  
Precipitation T in 0.24 in 1.90 in (1981)
Month to date precipitation 2.57 1.23  
Year to date precipitation 49.57 34.04  
Snow  
Snow 0.00 in - - ()
Snow Depth 0.00 in    
Sea Level Pressure  
Sea Level Pressure 30.19 in    
Wind  
Wind Speed 3 mph (SSE)    
Max Wind Speed 18 mph    
Max Gust Speed 18 mph    
Visibility 10 miles    
Events Rain    
T = Trace of Precipitation, MM = Missing Value Source: NWS Daily Summary

Daily Weather History Graph

Daily Weather History Graph

Search for Another Location

Airport or City:

Trip Planner

Search our weather history database for the weather conditions in past years. The results will help you decide how hot, cold, wet, or windy it might be!

Date:

Astronomy

Dec. 05, 2012 Rise Set
Actual Time 7:34 AM PST 4:30 PM PST
Civil Twilight 7:01 AM PST 5:04 PM PST
Nautical Twilight 6:24 AM PST 5:41 PM PST
Astronomical Twilight 5:49 AM PST 6:16 PM PST
Moon 11:40 PM PST (12/5) 11:48 AM PST (12/5)
Length of Visible Light 10h 02m
Length of Day
8h 56m
Waning Gibbous, 58% of the Moon is Illuminated
Dec 5
Waning Gibbous
Dec 6
Last Quarter
Dec 13
New
Dec 19
First Quarter
Dec 28
Full

Hourly Weather History & Observations

Time (PST) Temp. Windchill Dew Point Humidity Pressure Visibility Wind Dir Wind Speed Gust Speed Precip Events Conditions
12:56 AM 48.0 °F - 45.0 °F 89% 30.02 in 10.0 mi Calm Calm - N/A   Overcast
1:41 AM 48.2 °F - 44.6 °F 87% 30.04 in 10.0 mi North - - 0.00 in   Overcast
1:56 AM 48.0 °F - 44.1 °F 86% 30.05 in 10.0 mi Calm Calm - 0.00 in   Overcast
2:56 AM 44.1 °F 41.5 °F 43.0 °F 96% 30.09 in 10.0 mi ESE 4.6 mph - N/A   Overcast
3:56 AM 43.0 °F 41.3 °F 42.1 °F 97% 30.11 in 10.0 mi SSW 3.5 mph - N/A   Overcast
4:56 AM 44.1 °F 41.5 °F 41.0 °F 89% 30.13 in 10.0 mi WSW 4.6 mph - 0.00 in   Scattered Clouds
6:56 AM 39.9 °F 37.8 °F 39.0 °F 97% 30.16 in 10.0 mi South 3.5 mph - N/A   Clear
7:56 AM 41.0 °F - 39.9 °F 96% 30.18 in 10.0 mi Calm Calm - N/A   Scattered Clouds
8:56 AM 42.1 °F 40.2 °F 41.0 °F 96% 30.20 in 10.0 mi SSE 3.5 mph - N/A   Clear
9:56 AM 46.9 °F - 43.0 °F 86% 30.22 in 10.0 mi SE 3.5 mph - N/A   Clear
10:56 AM 48.9 °F - 44.1 °F 83% 30.23 in 10.0 mi SSE 4.6 mph - N/A   Scattered Clouds
11:56 AM 51.1 °F - 41.0 °F 68% 30.23 in 10.0 mi SSE 8.1 mph - N/A   Scattered Clouds
12:56 PM 51.1 °F - 36.0 °F 56% 30.22 in 10.0 mi Variable 3.5 mph - N/A   Scattered Clouds
1:56 PM 51.1 °F - 39.0 °F 63% 30.21 in 10.0 mi SE 6.9 mph - N/A   Scattered Clouds
2:56 PM 50.0 °F - 37.9 °F 63% 30.21 in 10.0 mi South 5.8 mph - N/A   Mostly Cloudy
3:56 PM 48.9 °F - 39.0 °F 69% 30.22 in 10.0 mi SSW 3.5 mph - N/A   Mostly Cloudy
4:56 PM 46.9 °F - 39.9 °F 77% 30.22 in 10.0 mi South 3.5 mph - N/A   Mostly Cloudy
5:56 PM 46.0 °F 44.8 °F 41.0 °F 83% 30.22 in 10.0 mi SSE 3.5 mph - N/A   Mostly Cloudy
6:56 PM 45.0 °F - 42.1 °F 90% 30.23 in 10.0 mi Calm Calm - 0.00 in Rain Light Rain
7:56 PM 44.1 °F - 42.1 °F 93% 30.24 in 10.0 mi Calm Calm - 0.00 in   Mostly Cloudy
8:56 PM 44.1 °F - 41.0 °F 89% 30.24 in 10.0 mi Calm Calm - N/A   Mostly Cloudy
9:56 PM 43.0 °F - 41.0 °F 93% 30.25 in 10.0 mi Calm Calm - N/A   Overcast
10:56 PM 42.1 °F - 39.9 °F 92% 30.25 in 10.0 mi Calm Calm - N/A   Scattered Clouds
11:56 PM 39.9 °F 36.7 °F 39.9 °F 100% 30.23 in 10.0 mi SE 4.6 mph - N/A   Clear